カタログに戻る

COSMOS 2251 DEB

運用中LEO
NORAD 34009·DEBRIS·🇷🇺 Russia

打ち上げ Jun 16, 1993 から Plesetsk Cosmodrome

Loading…

次のパス (今後24時間)

TLE

最新Source: Space-Track

元期: Sep 14, 2026, 06:33 UTC

1 34009U 93036GU  26257.27333843  .00000173  00000-0  72017-4 0  9994
2 34009  74.0374 193.3313 0028081 200.6616 310.6370 14.33399744918933

AllMySatでCOSMOS 2251 DEBをリアルタイム追跡

Download on the App Store